Date String (YYYY-MM-DD hh:mm:ss) UTC,Instrument flags,Ambient pressure (hPa),Sample flow (lpm),Bypass flow (lpm),Sample temperature (°C),Ambient temperature (°C),ASC tube jacket temperature (°C),LED temperature (°C),Box temperature (°C),Sample RH (%),Span deviation,Mass concentration (μg/m³),Mass concentration (μg/m³),Mass concentration (μg/m³)
DateTimeUTC,F1_M11,P_M11,Q1_M11,Q2_M11,T1_M11,T2_M11,T3_M11,T4_M11,T5_M11,U1_M11,ZSPAN_M11,X0_M11,X2_M11,X1_M11
2021-10-27 14:00:00,,0822.7,5.01,0.00,23.6,22.8,00.0,32.6,25.4,09.6,0000.0,0003.46,0000.68,0000.46
2021-10-27 14:01:00,,0822.6,5.00,0.00,23.7,22.9,00.0,32.6,25.5,09.6,0000.0,0002.70,0000.67,0000.47
2021-10-27 14:02:00,,0822.6,5.01,0.00,23.7,22.9,00.0,32.7,25.5,09.6,0000.0,0002.71,0000.67,0000.46
2021-10-27 14:03:00,,0822.6,5.00,0.00,23.7,22.8,00.0,32.7,25.5,09.6,0000.0,0001.90,0000.66,0000.46
2021-10-27 14:04:00,,0822.6,5.01,0.00,23.7,22.8,00.0,32.7,25.5,09.6,0000.0,0001.71,0000.67,0000.46
2021-10-27 14:05:00,,0822.6,4.99,0.00,23.7,22.8,00.0,32.7,25.5,09.6,0000.0,0001.69,0000.66,0000.45
2021-10-27 14:06:00,,0822.6,5.01,0.00,23.7,22.8,00.0,32.7,25.5,09.6,0000.0,0001.66,0000.64,0000.46
2021-10-27 14:07:00,,0822.6,5.01,0.00,23.7,22.8,00.0,32.7,25.5,09.7,0000.0,0001.64,0000.62,0000.46
2021-10-27 14:08:00,,0822.6,5.00,0.00,23.7,22.8,00.0,32.7,25.5,09.7,0000.0,0001.63,0000.61,0000.45
2021-10-27 14:09:00,,0822.7,5.00,0.00,23.7,22.9,00.0,32.7,25.5,09.8,0000.0,0001.75,0000.66,0000.46
2021-10-27 14:10:00,,0822.6,5.01,0.00,23.7,22.9,00.0,32.7,25.5,09.8,0000.0,0001.70,0000.68,0000.47
2021-10-27 14:11:00,,0822.7,4.99,0.00,23.7,22.9,00.0,32.7,25.5,09.7,0000.0,0001.26,0000.68,0000.47
2021-10-27 14:12:00,,0822.7,5.00,0.00,23.7,22.8,00.0,32.7,25.5,09.7,0000.0,0001.32,0000.72,0000.47
2021-10-27 14:13:00,,0822.7,5.01,0.00,23.7,22.8,00.0,32.7,25.5,09.7,0000.0,0001.32,0000.73,0000.47
2021-10-27 14:14:00,,0822.7,5.00,0.00,23.7,22.8,00.0,32.7,25.5,09.6,0000.0,0001.49,0000.72,0000.47
2021-10-27 14:15:00,,0822.7,5.00,0.00,23.7,22.8,00.0,32.8,25.5,09.6,0000.0,0002.25,0000.71,0000.47
2021-10-27 14:16:00,,0822.7,5.00,0.00,23.7,22.8,00.0,32.8,25.5,09.6,0000.0,0002.30,0000.73,0000.47
2021-10-27 14:17:00,,0822.7,4.99,0.00,23.7,22.8,00.0,32.8,25.5,09.6,0000.0,0002.33,0000.74,0000.47
2021-10-27 14:18:00,,0822.7,5.00,0.00,23.7,22.8,00.0,32.8,25.5,09.6,0000.0,0002.27,0000.73,0000.47
2021-10-27 14:19:00,,0822.7,5.00,0.00,23.8,22.9,00.0,32.8,25.5,09.6,0000.0,0002.24,0000.71,0000.46
2021-10-27 14:20:00,,0822.8,5.00,0.00,23.8,22.9,00.0,32.8,25.6,09.6,0000.0,0002.15,0000.67,0000.45
2021-10-27 14:21:00,,0822.7,4.99,0.00,23.8,22.9,00.0,32.8,25.6,09.6,0000.0,0002.01,0000.61,0000.44
2021-10-27 14:22:00,,0822.7,5.01,0.00,23.8,23.0,00.0,32.8,25.6,09.6,0000.0,0001.99,0000.60,0000.43
2021-10-27 14:23:00,,0822.7,4.99,0.00,23.8,23.0,00.0,32.8,25.6,09.7,0000.0,0001.96,0000.58,0000.42
2021-10-27 14:24:00,,0822.6,5.01,0.00,23.8,23.1,00.0,32.8,25.6,09.6,0000.0,0001.95,0000.57,0000.42
2021-10-27 14:25:00,,0822.6,4.99,0.00,23.9,23.1,00.0,32.8,25.7,09.6,0000.0,0002.08,0000.59,0000.41
2021-10-27 14:26:00,,0822.7,5.01,0.00,23.9,23.1,00.0,32.9,25.7,09.6,0000.0,0001.10,0000.59,0000.41
2021-10-27 14:27:00,,0822.7,4.99,0.00,23.9,23.1,00.0,32.9,25.7,09.6,0000.0,0001.09,0000.59,0000.42
2021-10-27 14:28:00,,0822.7,5.01,0.00,23.9,23.1,00.0,32.9,25.7,09.6,0000.0,0001.05,0000.57,0000.42
2021-10-27 14:29:00,,0822.6,4.99,0.00,23.9,23.2,00.0,32.9,25.8,09.6,0000.0,0001.03,0000.57,0000.42
2021-10-27 14:30:00,,0822.7,5.00,0.00,23.9,23.2,00.0,32.9,25.8,09.4,0000.0,0001.04,0000.56,0000.42
2021-10-27 14:31:00,,0822.7,5.00,0.00,24.0,23.2,00.0,32.9,25.8,09.3,0000.0,0001.24,0000.57,0000.42
2021-10-27 14:32:00,,0822.7,5.00,0.00,24.0,23.2,00.0,32.9,25.9,09.3,0000.0,0001.26,0000.58,0000.42
2021-10-27 14:33:00,,0822.7,4.99,0.00,24.0,23.2,00.0,33.0,25.9,09.4,0000.0,0001.30,0000.59,0000.42
2021-10-27 14:34:00,,0822.7,5.01,0.00,24.0,23.2,00.0,33.0,25.9,09.4,0000.0,0001.31,0000.60,0000.42
2021-10-27 14:35:00,,0822.8,4.99,0.00,24.0,23.2,00.0,33.0,25.9,09.4,0000.0,0001.25,0000.58,0000.43
2021-10-27 14:36:00,,0822.8,5.00,0.00,24.0,23.2,00.0,33.0,25.9,09.4,0000.0,0001.70,0000.57,0000.43
2021-10-27 14:37:00,,0822.8,5.01,0.00,24.0,23.2,00.0,33.0,25.9,09.5,0000.0,0002.45,0000.57,0000.44
2021-10-27 14:38:00,,0822.8,4.99,0.00,24.1,23.2,00.0,33.0,26.0,09.4,0000.0,0002.39,0000.54,0000.43
2021-10-27 14:39:00,,0823.0,5.01,0.00,24.1,23.2,00.0,33.0,26.0,09.4,0000.0,0002.45,0000.56,0000.43
2021-10-27 14:40:00,,0823.0,5.00,0.00,24.1,23.2,00.0,33.1,26.0,09.6,0000.0,0002.52,0000.58,0000.43
2021-10-27 14:41:00,,0822.9,4.98,0.00,24.1,23.2,00.0,33.1,26.0,10.0,0000.0,0002.57,0000.61,0000.45
2021-10-27 14:42:00,,0823.0,5.01,0.00,24.1,23.3,00.0,33.1,26.0,10.3,0000.0,0002.42,0000.63,0000.46
2021-10-27 14:43:00,,0823.0,5.00,0.00,24.1,23.3,00.0,33.1,26.0,10.2,0000.0,0002.46,0000.65,0000.47
2021-10-27 14:44:00,,0822.9,4.99,0.00,24.1,23.3,00.0,33.1,26.0,10.1,0000.0,0002.52,0000.68,0000.48
2021-10-27 14:45:00,,0823.0,5.02,0.00,24.2,23.4,00.0,33.1,26.1,10.1,0000.0,0002.74,0000.70,0000.49
2021-10-27 14:46:00,,0822.9,4.99,0.00,24.2,23.4,00.0,33.1,26.1,10.0,0000.0,0002.91,0000.70,0000.48
2021-10-27 14:47:00,,0823.0,5.01,0.00,24.2,23.4,00.0,33.2,26.1,10.1,0000.0,0002.59,0000.70,0000.49
2021-10-27 14:48:00,,0823.0,5.00,0.00,24.2,23.4,00.0,33.2,26.1,10.4,0000.0,0001.75,0000.72,0000.49
2021-10-27 14:49:00,,0823.0,4.99,0.00,24.2,23.5,00.0,33.2,26.1,10.5,0000.0,0001.77,0000.73,0000.50
2021-10-27 14:50:00,,0823.1,5.01,0.00,24.2,23.5,00.0,33.2,26.1,10.5,0000.0,0001.72,0000.72,0000.50
2021-10-27 14:51:00,,0823.1,4.99,0.00,24.3,23.5,00.0,33.2,26.2,10.4,0000.0,0001.95,0000.72,0000.52
2021-10-27 14:52:00,,0823.1,5.00,0.00,24.3,23.5,00.0,33.2,26.2,10.5,0000.0,0002.35,0000.74,0000.52
2021-10-27 14:53:00,,0823.1,5.00,0.00,24.3,23.6,00.0,33.2,26.2,10.6,0000.0,0002.36,0000.75,0000.52
2021-10-27 14:54:00,,0823.1,5.01,0.00,24.3,23.6,00.0,33.3,26.2,10.4,0000.0,0002.55,0000.76,0000.52
2021-10-27 14:55:00,,0823.2,5.00,0.00,24.3,23.6,00.0,33.3,26.2,10.5,0000.0,0002.95,0000.79,0000.52
2021-10-27 14:56:00,,0823.1,5.00,0.00,24.3,23.6,00.0,33.3,26.2,10.7,0000.0,0002.85,0000.81,0000.52
2021-10-27 14:57:00,,0823.2,4.99,0.00,24.4,23.6,00.0,33.3,26.2,10.5,0000.0,0002.81,0000.86,0000.53
2021-10-27 14:58:00,,0823.2,5.00,0.00,24.4,23.6,00.0,33.3,26.3,10.4,0000.0,0002.92,0000.96,0000.54
2021-10-27 14:59:00,,0823.1,5.01,0.00,24.4,23.6,00.0,33.3,26.3,10.3,0000.0,0002.86,0000.96,0000.54
